[[{"header":{"parameterUnit":"m.s-1","parameterCategory":1,"la1":30.2991,"la2":30.254,"lo1":-89.0895,"lo2":-89.0444,"dy":0.0017,"dx":0.0017,"nx":28,"ny":28,"refTime":"2024-04-14T21:00:00:Z","depth":0,"parameterNumber":2,"parameterNumberName":"U-component_of_WINDS"},"data":[0,0,0,0,0,0,0,0,0,0,0,0,0,0,0,0,0,0,0,0,0,0,0,0,0,0,0,0,0,0,0,0,0,0,0,0,0,0,0,0,0,0,0,0,0,0,0,0,0,0,0,0,0,0,0,0,0,0,-0.8587,-0.8586,0,-0.8484,-0.8483,-0.8482,-0.8412,-0.8412,-0.8411,-0.8411,-0.8307,-0.8305,-0.8303,0,0,0,0,0,0,0,0,0,0,0,0,0,-0.8726,-0.8724,-0.8587,-0.8586,-0.8585,-0.8484,-0.8483,-0.8482,-0.8412,-0.8412,-0.8411,-0.841,-0.8308,-0.8305,-0.8302,0,0,0,0,0,0,0,0,0,0,0,0,0,-0.8649,-0.8723,-0.8587,-0.8538,-0.8532,-0.8485,-0.8483,-0.8481,-0.8412,-0.8412,-0.8411,-0.841,-0.8309,-0.8305,-0.8302,-0.8296,0,0,-0.8291,-0.829,0,0,0,0,0,0,0,0,-0.8653,-0.8644,-0.8546,-0.8541,-0.8535,-0.846,-0.8494,-0.8419,-0.8413,-0.8458,-0.8411,-0.841,-0.8359,-0.8351,-0.8333,-0.8291,-0.8286,-0.8291,-0.8289,-0.8288,-0.8287,0,0,0,0,0,0,0,-0.8659,-0.8648,-0.8546,-0.8545,-0.8538,-0.8521,-0.851,-0.8479,-0.8414,-0.8454,-0.8449,-0.8437,-0.8355,-0.8337,-0.8331,-0.8285,-0.8291,-0.8288,-0.8286,-0.8285,-0.8233,-0.8234,0,0,0,0,0,0,-0.8671,-0.8653,-0.855,-0.8543,-0.8593,-0.852,-0.8506,-0.8485,-0.8414,-0.8402,-0.8438,-0.8434,-0.8343,-0.8335,-0.8327,-0.8315,-0.8288,-0.8284,-0.8282,-0.8232,-0.8233,-0.8234,0,0,0,0,0,0,-0.8675,-0.8663,-0.8554,-0.8596,-0.8581,-0.8518,-0.8495,-0.8483,-0.8465,-0.8402,-0.839,-0.8431,-0.8342,-0.8331,-0.8304,-0.8311,-0.8283,-0.828,-0.8231,-0.8233,-0.8233,-0.8292,0,0,0,0,0,0,-0.8679,-0.8664,-0.8661,-0.8597,-0.8579,-0.8533,-0.8495,-0.8482,-0.8459,-0.8453,-0.8392,-0.8382,-0.8341,-0.831,-0.8301,-0.8305,-0.8277,-0.8231,-0.8232,-0.8233,-0.8289,-0.8295,-0.83,0,0,0,0,0,-0.8684,-0.8682,-0.8661,-0.8649,-0.8574,-0.8533,-0.8523,-0.8476,-0.846,-0.8456,-0.8416,-0.8383,-0.8311,-0.8307,-0.8297,-0.8301,-0.823,-0.8232,-0.8233,-0.8287,-0.8294,-0.83,0,0,0,0,0,0,-0.8749,-0.8673,-0.8649,-0.8626,-0.8586,-0.8521,-0.8515,-0.8485,-0.845,-0.8446,-0.8389,-0.8376,-0.8355,-0.8325,-0.8322,-0.8291,-0.8267,-0.8266,-0.8312,-0.8318,-0.8323,-0.8331,-0.8274,0,0,0,0,0,-0.8761,-0.8733,-0.8668,-0.8654,-0.8636,-0.8579,-0.856,-0.8527,-0.8484,-0.8467,-0.8425,-0.8385,-0.8353,-0.8334,-0.8301,-0.8285,-0.8271,-0.8282,-0.8288,-0.8292,-0.8293,-0.8282,-0.8287,-0.8239,-0.8239,-0.8239,0,0,-0.8784,-0.8739,-0.8726,-0.8666,-0.8632,-0.8606,-0.8566,-0.854,-0.852,-0.8463,-0.8435,-0.8403,-0.8354,-0.8333,-0.8321,-0.8307,-0.8303,-0.8294,-0.8298,-0.8296,-0.8284,-0.8289,-0.8293,-0.824,-0.824,-0.824,0,0,-0.8814,-0.8777,-0.8761,-0.8728,-0.8676,-0.8639,-0.8635,-0.8575,-0.8551,-0.8521,-0.8478,-0.8455,-0.8401,-0.8369,-0.8345,-0.8364,-0.8333,-0.8355,-0.8383,-0.8373,-0.8377,-0.838,-0.8387,-0.839,-0.8355,-0.8355,-0.8355,0,-0.8851,-0.8809,-0.8758,-0.8734,-0.8709,-0.8657,-0.8641,-0.8611,-0.8552,-0.8536,-0.8521,-0.8454,-0.8417,-0.8388,-0.8392,-0.8375,-0.837,-0.8361,-0.838,-0.8383,-0.8385,-0.8391,-0.8394,-0.8358,-0.8358,-0.8358,-0.8357,0,-0.8856,-0.8828,-0.8821,-0.8765,-0.874,-0.872,-0.8667,-0.8648,-0.8617,-0.8582,-0.8553,-0.8507,-0.8465,-0.8455,-0.8425,-0.8422,-0.8415,-0.8391,-0.8365,-0.8394,-0.8398,-0.84,-0.8363,-0.8362,-0.8361,-0.836,0,0,-0.8924,-0.884,-0.8838,-0.8812,-0.8751,-0.8729,-0.8708,-0.8665,-0.865,-0.8611,-0.8592,-0.8549,-0.8526,-0.85,-0.8466,-0.8458,-0.8476,-0.8435,-0.8433,-0.8445,-0.847,-0.8488,-0.8492,-0.8455,-0.8455,-0.8455,-0.8474,0,-0.8945,-0.8903,-0.8857,-0.8831,-0.8805,-0.8754,-0.8736,-0.8697,-0.8663,-0.8636,-0.8599,-0.8569,-0.8542,-0.8526,-0.8515,-0.8476,-0.848,-0.8474,-0.8438,-0.8437,-0.8452,-0.8494,-0.8513,-0.8533,-0.8475,-0.8476,-0.8476,0,-0.8964,-0.8927,-0.8899,-0.8841,-0.8828,-0.8812,-0.877,-0.8745,-0.87,-0.8676,-0.8647,-0.8611,-0.8586,-0.8564,-0.853,-0.8527,-0.8509,-0.8488,-0.8487,-0.8482,-0.8458,-0.8491,-0.8538,-0.8541,-0.8478,-0.8478,-0.8478,0,-0.9017,-0.8961,-0.8936,-0.8915,-0.8847,-0.8837,-0.8808,-0.8762,-0.874,-0.8704,-0.8689,-0.8651,-0.863,-0.8601,-0.8556,-0.8544,-0.8527,-0.8501,-0.8507,-0.8509,-0.8506,-0.8507,-0.8552,-0.8495,-0.8495,-0.8495,-0.8495,0,-0.9046,-0.9031,-0.8959,-0.8944,-0.8926,-0.8873,-0.8857,-0.8824,-0.8784,-0.8762,-0.8716,-0.8697,-0.8638,-0.8612,-0.8577,-0.8554,-0.8545,-0.8526,-0.8517,-0.853,-0.8533,-0.8518,-0.8516,-0.8495,-0.8495,-0.8495,-0.8495,0,-0.9103,-0.9054,-0.9024,-0.8961,-0.8945,-0.8935,-0.8882,-0.8866,-0.8829,-0.8803,-0.8794,-0.8737,-0.8704,-0.8656,-0.8609,-0.8585,-0.8568,-0.8553,-0.8583,-0.8578,-0.8587,-0.8587,-0.8624,-0.8627,-0.8568,-0.8569,-0.8569,0,-0.9124,-0.9111,-0.9047,-0.9029,-0.9002,-0.8973,-0.895,-0.8898,-0.8876,-0.8824,-0.8815,-0.8779,-0.8747,-0.8697,-0.8652,-0.8616,-0.86,-0.8615,-0.8594,-0.8608,-0.86,-0.8602,-0.8601,-0.862,-0.8621,-0.8622,-0.8622,0,-0.9168,-0.9145,-0.9113,-0.9073,-0.9047,-0.9013,-0.8977,-0.8965,-0.8905,-0.8883,-0.8848,-0.8824,-0.8775,-0.874,-0.8698,-0.8669,-0.8636,-0.8629,-0.8629,-0.8643,-0.8661,-0.8652,-0.8597,-0.8629,-0.8628,-0.8628,-0.8627,-0.8627,-0.9208,-0.9195,-0.9147,-0.9114,-0.9081,-0.9048,-0.903,-0.8992,-0.8962,-0.8918,-0.8889,-0.8856,-0.8812,-0.8752,-0.8725,-0.8699,-0.8685,-0.8685,-0.8685,-0.8686,-0.8691,-0.8665,-0.8691,-0.8691,-0.8691,-0.8691,-0.8691,0,-0.9251,-0.9218,-0.9187,-0.9138,-0.9111,-0.9082,-0.9041,-0.9021,-0.8992,-0.8954,-0.8923,-0.8884,-0.885,-0.8802,-0.8765,-0.8753,-0.8737,-0.8745,-0.8746,-0.874,-0.8705,-0.8709,-0.8759,-0.8759,-0.8759,-0.8759,-0.8759,-0.8759,-0.9269,-0.9245,-0.9216,-0.9175,-0.9142,-0.9109,-0.9088,-0.9058,-0.9027,-0.8985,-0.8956,-0.8925,-0.8883,-0.8842,-0.8809,-0.8796,-0.8784,-0.8797,-0.878,-0.8748,-0.8742,-0.8736,-0.874,-0.8795,-0.8795,-0.8816,-0.8817,-0.8817]},{"header":{"parameterUnit":"m.s-1","parameterCategory":1,"la1":30.2991,"la2":30.254,"lo1":-89.0895,"lo2":-89.0444,"dy":0.0017,"dx":0.0017,"nx":28,"ny":28,"refTime":"2024-04-14T21:00:00:Z","depth":0,"parameterNumber":3,"parameterNumberName":"V-component_of_WINDS"},"data":[0,0,0,0,0,0,0,0,0,0,0,0,0,0,0,0,0,0,0,0,0,0,0,0,0,0,0,0,0,0,0,0,0,0,0,0,0,0,0,0,0,0,0,0,0,0,0,0,0,0,0,0,0,0,0,0,0,0,2.9089,2.9088,0,2.9053,2.9053,2.9052,2.9051,2.9052,2.9052,2.9052,2.901,2.9008,2.9006,0,0,0,0,0,0,0,0,0,0,0,0,0,2.9151,2.915,2.9089,2.9088,2.9088,2.9053,2.9053,2.9052,2.9051,2.9052,2.9052,2.9053,2.901,2.9008,2.9006,0,0,0,0,0,0,0,0,0,0,0,0,0,2.912,2.915,2.9089,2.9083,2.9083,2.9053,2.9053,2.9052,2.9051,2.9052,2.9052,2.9053,2.9011,2.9008,2.9006,2.8978,0,0,2.8999,2.8998,0,0,0,0,0,0,0,0,2.9122,2.9118,2.9085,2.9084,2.9083,2.9057,2.9059,2.9027,2.9051,2.9063,2.9052,2.9053,2.9024,2.9021,2.9013,2.8976,2.8974,2.8999,2.8997,2.8996,2.8996,0,0,0,0,0,0,0,2.9124,2.912,2.9075,2.9084,2.9083,2.9081,2.9077,2.9053,2.904,2.9062,2.9062,2.9058,2.9024,2.9015,2.9012,2.8973,2.8999,2.8997,2.8995,2.8994,2.8912,2.8912,0,0,0,0,0,0,2.9128,2.9121,2.9076,2.9073,2.9105,2.9079,2.9075,2.9065,2.904,2.9037,2.9057,2.9058,2.9019,2.9014,2.901,2.8976,2.8996,2.8994,2.8993,2.8913,2.8912,2.8911,0,0,0,0,0,0,2.913,2.9124,2.9077,2.9097,2.9091,2.9078,2.9066,2.9064,2.9055,2.9037,2.9034,2.9051,2.9019,2.9013,2.8987,2.8975,2.8993,2.8991,2.8914,2.8913,2.8912,2.8908,0,0,0,0,0,0,2.9131,2.9125,2.9115,2.9097,2.909,2.9056,2.9065,2.9062,2.9051,2.9052,2.903,2.9027,2.9019,2.899,2.8984,2.8972,2.8989,2.8915,2.8914,2.8912,2.8909,2.8907,2.8905,0,0,0,0,0,2.9134,2.9114,2.9115,2.9109,2.9078,2.9055,2.9051,2.9044,2.905,2.904,2.9029,2.9028,2.8977,2.8987,2.8981,2.8967,2.8916,2.8914,2.8912,2.891,2.8907,2.8905,0,0,0,0,0,0,2.9128,2.9111,2.9112,2.9086,2.9072,2.9055,2.9041,2.9041,2.9023,2.9024,2.9015,2.901,2.8983,2.8972,2.8984,2.8939,2.8947,2.8944,2.8947,2.8944,2.8942,2.8945,2.8987,0,0,0,0,0,2.9124,2.9109,2.9094,2.9073,2.9066,2.9055,2.9045,2.9041,2.9025,2.9019,2.9005,2.8989,2.8969,2.8956,2.8937,2.8907,2.8902,2.8895,2.8893,2.8891,2.8888,2.8872,2.8869,2.8906,2.8906,2.8906,0,0,2.9115,2.9104,2.9094,2.9071,2.906,2.9043,2.905,2.9031,2.9018,2.9015,2.899,2.8979,2.896,2.8932,2.8919,2.8922,2.8877,2.8889,2.8888,2.8886,2.887,2.8867,2.8864,2.8905,2.8905,2.8905,0,0,2.909,2.9081,2.9062,2.9052,2.9036,2.9029,2.9024,2.9007,2.9001,2.8976,2.8974,2.8957,2.8923,2.891,2.8899,2.887,2.8868,2.8864,2.8853,2.8837,2.8834,2.8832,2.8822,2.8818,2.8861,2.8861,2.8861,0,2.9081,2.9056,2.9052,2.9034,2.9024,2.9023,2.9004,2.8993,2.897,2.8962,2.8967,2.8926,2.8912,2.8882,2.8875,2.8866,2.886,2.8866,2.8835,2.8833,2.883,2.882,2.8817,2.8861,2.8861,2.8861,2.8861,0,2.9045,2.9029,2.9015,2.8997,2.8985,2.8966,2.8957,2.8945,2.8943,2.8935,2.8909,2.8894,2.8872,2.8864,2.886,2.8833,2.8835,2.8838,2.8845,2.8826,2.8817,2.8813,2.886,2.886,2.8861,2.8861,0,0,2.9015,2.8996,2.8991,2.8983,2.8965,2.8951,2.8932,2.8913,2.8903,2.8888,2.8871,2.8843,2.8846,2.8833,2.8828,2.8814,2.8793,2.8818,2.8818,2.8814,2.8762,2.876,2.8756,2.8792,2.8792,2.8791,2.8764,0,2.8988,2.8957,2.8953,2.8924,2.8908,2.8908,2.8891,2.8878,2.887,2.8854,2.8845,2.8826,2.8831,2.8823,2.881,2.8799,2.8782,2.88,2.8775,2.8774,2.878,2.8751,2.8749,2.8724,2.876,2.8759,2.8759,0,2.8953,2.8939,2.891,2.8896,2.8889,2.8875,2.8857,2.8843,2.8827,2.8823,2.8809,2.8806,2.8785,2.8794,2.8764,2.8777,2.8766,2.8759,2.8758,2.8755,2.8765,2.8748,2.8716,2.8712,2.8753,2.8753,2.8754,0,2.8934,2.8908,2.8888,2.888,2.8864,2.8853,2.8845,2.8831,2.882,2.8805,2.8797,2.8778,2.8768,2.8752,2.8744,2.8751,2.8715,2.8723,2.8709,2.8709,2.8701,2.8702,2.8668,2.8694,2.8694,2.8694,2.8695,0,2.8905,2.8887,2.8879,2.8866,2.8846,2.8841,2.882,2.8812,2.88,2.8784,2.8782,2.8767,2.8757,2.874,2.8733,2.8709,2.8704,2.8699,2.8697,2.8699,2.87,2.8692,2.8694,2.8693,2.8694,2.8694,2.8694,0,2.888,2.8874,2.8852,2.8839,2.8835,2.882,2.8808,2.8795,2.8788,2.8769,2.8764,2.8752,2.8732,2.8723,2.8697,2.8692,2.8666,2.8665,2.8672,2.8671,2.8658,2.866,2.8618,2.8612,2.8643,2.8642,2.8642,0,2.8862,2.8848,2.8835,2.8825,2.8818,2.8803,2.8792,2.8787,2.8776,2.8758,2.8747,2.8728,2.8712,2.8681,2.8669,2.8649,2.8648,2.8635,2.8645,2.8648,2.8648,2.8649,2.8648,2.8633,2.8632,2.8632,2.8632,0,2.883,2.8828,2.8815,2.88,2.8789,2.8777,2.8764,2.8756,2.8749,2.8736,2.8718,2.8706,2.8681,2.8662,2.8642,2.8632,2.863,2.8629,2.8625,2.8627,2.8632,2.8629,2.8667,2.863,2.863,2.863,2.863,2.863,2.8808,2.8796,2.8786,2.8771,2.8761,2.875,2.8738,2.8731,2.8716,2.8697,2.8694,2.8674,2.8659,2.8633,2.8622,2.8606,2.8608,2.8602,2.8601,2.8599,2.8599,2.8635,2.8602,2.8602,2.8602,2.8602,2.8602,0,2.8776,2.877,2.8756,2.8741,2.8729,2.8731,2.8718,2.8707,2.869,2.8678,2.8664,2.8642,2.8624,2.8611,2.8592,2.8581,2.858,2.8576,2.8577,2.8575,2.8597,2.8603,2.8578,2.8578,2.8578,2.8578,2.8578,2.8578,2.8759,2.874,2.8737,2.8713,2.8706,2.8688,2.8681,2.867,2.866,2.8637,2.8623,2.8616,2.8603,2.8583,2.8566,2.8563,2.8556,2.8552,2.8549,2.857,2.8573,2.8575,2.8581,2.8551,2.8551,2.8527,2.8527,2.8527]}]]